APG942 RPLL-WMKK

Flight info

Callsign APG942
Flight time 3h 18m
Altitude 36000
Route BUCAL2V BUCAL M646 TOKON M767 TERIX M758 IDSEL Y335 PADLI Y343 SAROX SAROX1H
Aircraft A320/M-SDE3FGHIRWY/LB1

Departure

Time 2026-05-04 00:25
Airport Ninoy Aquino International Airport (RPLL)

Arrival

Time 2026-05-04 03:44
Airport Kuala Lumpur International Airport (WMKK)
Time Latitude Longitude Altitude Speed Heading
2026-05-03 23:06 14.50592 121.00520 69 ft 0 kts 202°
2026-05-04 00:17 14.50612 121.00530 62 ft 4 kts 213°
2026-05-04 00:17 14.50633 121.00547 69 ft 4 kts 231°
2026-05-04 00:18 14.50647 121.00570 69 ft 4 kts 250°
2026-05-04 00:18 14.50654 121.00597 69 ft 4 kts 266°
2026-05-04 00:18 14.50653 121.00625 69 ft 4 kts 277°
2026-05-04 00:18 14.50649 121.00652 69 ft 4 kts 279°
2026-05-04 00:19 14.50648 121.00678 69 ft 4 kts 238°
2026-05-04 00:19 14.50650 121.00683 69 ft 0 kts 215°
2026-05-04 00:20 14.50645 121.00686 69 ft 1 kts 152°
2026-05-04 00:21 14.50644 121.00698 69 ft 4 kts 106°
2026-05-04 00:21 14.50627 121.00748 60 ft 10 kts 113°
2026-05-04 00:21 14.50578 121.00783 69 ft 9 kts 149°
2026-05-04 00:21 14.50510 121.00825 69 ft 12 kts 149°
2026-05-04 00:22 14.50430 121.00820 68 ft 11 kts 199°
2026-05-04 00:22 14.50365 121.00775 64 ft 12 kts 239°
2026-05-04 00:22 14.50313 121.00678 59 ft 19 kts 242°
2026-05-04 00:22 14.50242 121.00555 63 ft 21 kts 240°
2026-05-04 00:23 14.50171 121.00420 62 ft 22 kts 240°
2026-05-04 00:23 14.50093 121.00280 60 ft 23 kts 239°
2026-05-04 00:23 14.50009 121.00133 64 ft 24 kts 239°
2026-05-04 00:23 14.49936 121.00004 65 ft 13 kts 239°
2026-05-04 00:24 14.49875 120.99966 62 ft 10 kts 161°
2026-05-04 00:24 14.49817 120.99998 62 ft 9 kts 149°
2026-05-04 00:24 14.49826 121.00083 67 ft 22 kts 59°
2026-05-04 00:24 14.49996 121.00385 63 ft 83 kts 60°
2026-05-04 00:25 14.50386 121.01092 68 ft 141 kts 60°
2026-05-04 00:25 14.50946 121.02102 247 ft 170 kts 63°
2026-05-04 00:25 14.51512 121.03173 944 ft 171 kts 63°
2026-05-04 00:25 14.52080 121.04261 1574 ft 176 kts 62°
2026-05-04 00:26 14.52727 121.05424 1863 ft 198 kts 61°
2026-05-04 00:26 14.53464 121.06729 2124 ft 222 kts 60°
2026-05-04 00:26 14.54256 121.08129 2775 ft 228 kts 60°
2026-05-04 00:26 14.55059 121.09551 3557 ft 230 kts 60°
2026-05-04 00:27 14.55865 121.10992 4349 ft 232 kts 60°
2026-05-04 00:27 14.56469 121.12602 4747 ft 254 kts 82°
2026-05-04 00:27 14.56304 121.14459 5275 ft 268 kts 110°
2026-05-04 00:27 14.55260 121.16071 6014 ft 276 kts 138°
2026-05-04 00:28 14.53528 121.16942 6764 ft 284 kts 169°
2026-05-04 00:28 14.51557 121.16741 7491 ft 292 kts 201°
2026-05-04 00:28 14.49740 121.15765 8206 ft 297 kts 208°
2026-05-04 00:28 14.47933 121.14704 8920 ft 301 kts 208°
2026-05-04 00:29 14.46107 121.13622 9601 ft 304 kts 208°
2026-05-04 00:29 14.44258 121.12530 10280 ft 309 kts 208°
2026-05-04 00:29 14.42349 121.11408 10484 ft 331 kts 208°
2026-05-04 00:29 14.40278 121.10199 10639 ft 352 kts 208°
2026-05-04 00:30 14.38087 121.08927 10886 ft 368 kts 208°
2026-05-04 00:30 14.35831 121.07619 11423 ft 374 kts 208°
2026-05-04 00:30 14.33554 121.06301 12020 ft 378 kts 208°
2026-05-04 00:30 14.31252 121.04970 12629 ft 381 kts 208°
2026-05-04 00:31 14.28934 121.03629 13234 ft 384 kts 208°
2026-05-04 00:31 14.26597 121.02276 13813 ft 387 kts 208°
2026-05-04 00:31 14.24246 121.00915 14394 ft 389 kts 208°
2026-05-04 00:31 14.21878 120.99542 14965 ft 392 kts 208°
2026-05-04 00:32 14.19496 120.98161 15501 ft 394 kts 208°
2026-05-04 00:32 14.17096 120.96769 16028 ft 397 kts 208°
2026-05-04 00:32 14.14676 120.95369 16554 ft 400 kts 208°
2026-05-04 00:32 14.12243 120.93964 17076 ft 402 kts 208°
2026-05-04 00:33 14.09822 120.92568 17565 ft 405 kts 208°
2026-05-04 00:33 14.04874 120.89712 18571 ft 411 kts 208°
2026-05-04 00:33 14.02469 120.88101 19058 ft 414 kts 213°
2026-05-04 00:34 14.00084 120.86416 19549 ft 416 kts 213°
2026-05-04 00:34 13.97684 120.84723 20002 ft 419 kts 213°
2026-05-04 00:34 13.95266 120.83019 20442 ft 422 kts 213°
2026-05-04 00:34 13.92839 120.81311 20875 ft 424 kts 213°
2026-05-04 00:35 13.90393 120.79593 21292 ft 427 kts 213°
2026-05-04 00:35 13.87935 120.77867 21696 ft 429 kts 213°
2026-05-04 00:35 13.85465 120.76130 22085 ft 431 kts 213°
2026-05-04 00:35 13.82984 120.74384 22459 ft 433 kts 213°
2026-05-04 00:36 13.80495 120.72630 22825 ft 435 kts 213°
2026-05-04 00:36 13.77991 120.70865 23175 ft 437 kts 213°
2026-05-04 00:36 13.75480 120.69096 23508 ft 439 kts 213°
2026-05-04 00:36 13.72987 120.67345 23837 ft 440 kts 213°
2026-05-04 00:37 13.70417 120.65543 24160 ft 442 kts 213°
2026-05-04 00:37 13.67906 120.63783 24462 ft 444 kts 213°
2026-05-04 00:37 13.65346 120.61992 24762 ft 446 kts 213°
2026-05-04 00:37 13.62777 120.60190 25042 ft 448 kts 213°
2026-05-04 00:38 13.60179 120.58416 25314 ft 449 kts 209°
2026-05-04 00:38 13.57393 120.56964 25575 ft 450 kts 204°
2026-05-04 00:38 13.54557 120.55594 25834 ft 452 kts 204°
2026-05-04 00:38 13.51699 120.54217 26091 ft 453 kts 204°
2026-05-04 00:39 13.48835 120.52840 26346 ft 455 kts 204°
2026-05-04 00:39 13.45957 120.51460 26607 ft 457 kts 204°
2026-05-04 00:39 13.43067 120.50072 26861 ft 459 kts 204°
2026-05-04 00:39 13.41149 120.49154 27020 ft 460 kts 204°
2026-05-04 00:40 13.38244 120.47763 27262 ft 461 kts 204°
2026-05-04 00:40 13.35328 120.46363 27499 ft 463 kts 204°
2026-05-04 00:40 13.31457 120.44499 27785 ft 465 kts 204°
2026-05-04 00:40 13.28525 120.43085 27999 ft 466 kts 204°
2026-05-04 00:41 13.26539 120.42128 28140 ft 467 kts 204°
2026-05-04 00:41 13.23592 120.40710 28338 ft 469 kts 204°
2026-05-04 00:41 13.20630 120.39287 28524 ft 470 kts 204°
2026-05-04 00:41 13.17702 120.37881 28704 ft 472 kts 204°
2026-05-04 00:42 13.14724 120.36453 28886 ft 473 kts 204°
2026-05-04 00:42 13.11740 120.35024 29062 ft 474 kts 204°
2026-05-04 00:42 13.08751 120.33591 29251 ft 475 kts 204°
2026-05-04 00:42 13.05761 120.32158 29506 ft 474 kts 204°
2026-05-04 00:43 13.02774 120.30726 29753 ft 473 kts 205°
2026-05-04 00:43 12.99792 120.29297 30002 ft 473 kts 205°
2026-05-04 00:43 12.96813 120.27866 30260 ft 472 kts 205°
2026-05-04 00:43 12.93841 120.26438 30532 ft 471 kts 205°
2026-05-04 00:44 12.90876 120.25018 30793 ft 470 kts 205°
2026-05-04 00:44 12.87911 120.23602 31039 ft 469 kts 205°
2026-05-04 00:44 12.84953 120.22189 31286 ft 469 kts 205°
2026-05-04 00:44 12.82001 120.20778 31552 ft 468 kts 205°
2026-05-04 00:45 12.79054 120.19369 31808 ft 467 kts 205°
2026-05-04 00:45 12.76113 120.17962 32067 ft 466 kts 205°
2026-05-04 00:45 12.73170 120.16554 32322 ft 466 kts 205°
2026-05-04 00:45 12.70239 120.15155 32578 ft 465 kts 205°
2026-05-04 00:46 12.67308 120.13753 32832 ft 464 kts 205°
2026-05-04 00:46 12.64421 120.12370 33082 ft 464 kts 205°
2026-05-04 00:46 12.61503 120.10975 33330 ft 463 kts 205°
2026-05-04 00:46 12.58585 120.09583 33585 ft 462 kts 205°
2026-05-04 00:47 12.55673 120.08194 33849 ft 461 kts 205°
2026-05-04 00:47 12.52769 120.06808 34089 ft 461 kts 205°
2026-05-04 00:47 12.49867 120.05424 34324 ft 460 kts 205°
2026-05-04 00:47 12.46967 120.04042 34556 ft 460 kts 205°
2026-05-04 00:48 12.44068 120.02659 34801 ft 459 kts 205°
2026-05-04 00:48 12.41179 120.01281 35032 ft 458 kts 205°
2026-05-04 00:48 12.38295 119.99906 35246 ft 457 kts 205°
2026-05-04 00:48 12.35412 119.98533 35464 ft 456 kts 205°
2026-05-04 00:49 12.32539 119.97167 35676 ft 455 kts 205°
2026-05-04 00:49 12.29668 119.95802 35875 ft 454 kts 205°
2026-05-04 00:49 12.26802 119.94437 35960 ft 455 kts 205°
2026-05-04 00:50 12.21060 119.91698 35971 ft 456 kts 205°
2026-05-04 00:50 12.15354 119.88977 35971 ft 456 kts 205°
2026-05-04 00:51 12.09603 119.86243 35971 ft 456 kts 205°
2026-05-04 00:51 12.03848 119.83515 35971 ft 456 kts 205°
2026-05-04 00:52 11.98100 119.80785 35971 ft 456 kts 205°
2026-05-04 00:52 11.92353 119.78053 35970 ft 456 kts 205°
2026-05-04 00:53 11.86598 119.75323 35969 ft 456 kts 205°
2026-05-04 00:53 11.80846 119.72593 35967 ft 456 kts 205°
2026-05-04 00:54 11.75098 119.69861 35966 ft 456 kts 205°
2026-05-04 00:54 11.69777 119.66384 35961 ft 456 kts 222°
2026-05-04 00:55 11.65729 119.61422 35959 ft 457 kts 233°
2026-05-04 00:55 11.61992 119.56185 35957 ft 457 kts 233°
2026-05-04 00:56 11.58268 119.50979 35955 ft 457 kts 233°
2026-05-04 00:56 11.54513 119.45742 35950 ft 458 kts 233°
2026-05-04 00:57 11.50766 119.40497 35947 ft 458 kts 233°
2026-05-04 00:57 11.47011 119.35246 35948 ft 458 kts 233°
2026-05-04 00:58 11.43248 119.29999 35950 ft 458 kts 233°
2026-05-04 00:58 11.39488 119.24751 35947 ft 458 kts 233°
2026-05-04 00:59 11.35724 119.19506 35946 ft 459 kts 233°
2026-05-04 00:59 11.31950 119.14254 35947 ft 459 kts 233°
2026-05-04 01:00 11.28175 119.09003 35948 ft 459 kts 233°
2026-05-04 01:00 11.24406 119.03746 35950 ft 460 kts 233°
2026-05-04 01:01 11.20658 118.98525 35950 ft 460 kts 233°
2026-05-04 01:01 11.16872 118.93270 35951 ft 460 kts 233°
2026-05-04 01:02 11.13093 118.88016 35951 ft 460 kts 233°
2026-05-04 01:02 11.09315 118.82758 35952 ft 460 kts 233°
2026-05-04 01:03 11.05528 118.77499 35953 ft 460 kts 233°
2026-05-04 01:03 11.01737 118.72242 35951 ft 460 kts 233°
2026-05-04 01:04 10.97951 118.66988 35951 ft 461 kts 233°
2026-05-04 01:04 10.94162 118.61723 35951 ft 461 kts 233°
2026-05-04 01:05 10.90394 118.56502 35951 ft 461 kts 233°
2026-05-04 01:05 10.86597 118.51244 35951 ft 461 kts 233°
2026-05-04 01:06 10.82801 118.45981 35952 ft 462 kts 233°
2026-05-04 01:06 10.79002 118.40715 35952 ft 462 kts 233°
2026-05-04 01:07 10.75196 118.35453 35951 ft 462 kts 233°
2026-05-04 01:07 10.71384 118.30192 35949 ft 462 kts 233°
2026-05-04 01:08 10.67567 118.24921 35948 ft 462 kts 233°
2026-05-04 01:08 10.63756 118.19657 35947 ft 463 kts 233°
2026-05-04 01:09 10.59961 118.14421 35948 ft 463 kts 233°
2026-05-04 01:09 10.56143 118.09145 35948 ft 463 kts 233°
2026-05-04 01:10 10.52321 118.03870 35950 ft 464 kts 232°
2026-05-04 01:10 10.48491 117.98596 35957 ft 464 kts 233°
2026-05-04 01:11 10.44661 117.93323 35961 ft 464 kts 232°
2026-05-04 01:11 10.40823 117.88046 35964 ft 464 kts 233°
2026-05-04 01:12 10.36993 117.82764 35966 ft 464 kts 233°
2026-05-04 01:12 10.33164 117.77478 35967 ft 464 kts 233°
2026-05-04 01:13 10.29382 117.72206 35969 ft 465 kts 233°
2026-05-04 01:13 10.25590 117.66885 35970 ft 465 kts 233°
2026-05-04 01:14 10.21796 117.61572 35971 ft 465 kts 233°
2026-05-04 01:14 10.17993 117.56265 35971 ft 465 kts 233°
2026-05-04 01:15 10.14188 117.50964 35971 ft 465 kts 233°
2026-05-04 01:15 10.10379 117.45670 35971 ft 464 kts 233°
2026-05-04 01:16 10.06571 117.40369 35971 ft 465 kts 233°
2026-05-04 01:16 10.02764 117.35065 35971 ft 465 kts 233°
2026-05-04 01:17 9.98951 117.29766 35973 ft 465 kts 233°
2026-05-04 01:17 9.95164 117.24502 35970 ft 465 kts 233°
2026-05-04 01:18 9.91347 117.19198 35965 ft 465 kts 233°
2026-05-04 01:18 9.87529 117.13893 35963 ft 466 kts 233°
2026-05-04 01:19 9.83711 117.08587 35963 ft 466 kts 233°
2026-05-04 01:19 9.79880 117.03281 35962 ft 466 kts 233°
2026-05-04 01:20 9.76051 116.97969 35962 ft 466 kts 233°
2026-05-04 01:20 9.72229 116.92658 35961 ft 466 kts 233°
2026-05-04 01:21 9.68403 116.87351 35957 ft 466 kts 233°
2026-05-04 01:21 9.64593 116.82069 35957 ft 467 kts 233°
2026-05-04 01:22 9.60758 116.76765 35958 ft 466 kts 233°
2026-05-04 01:22 9.56925 116.71458 35958 ft 466 kts 233°
2026-05-04 01:23 9.53094 116.66151 35956 ft 466 kts 233°
2026-05-04 01:23 9.49264 116.60850 35955 ft 466 kts 233°
2026-05-04 01:24 9.45457 116.55584 35955 ft 466 kts 233°
2026-05-04 01:24 9.41610 116.50277 35954 ft 467 kts 233°
2026-05-04 01:25 9.37769 116.44981 35953 ft 467 kts 233°
2026-05-04 01:25 9.33933 116.39680 35948 ft 467 kts 233°
2026-05-04 01:26 9.30107 116.34375 35947 ft 467 kts 233°
2026-05-04 01:26 9.26266 116.29071 35945 ft 467 kts 233°
2026-05-04 01:27 9.22428 116.23822 35945 ft 467 kts 233°
2026-05-04 01:27 9.18554 116.18543 35945 ft 467 kts 233°
2026-05-04 01:28 9.14692 116.13262 35946 ft 467 kts 233°
2026-05-04 01:28 9.10830 116.07976 35946 ft 467 kts 233°
2026-05-04 01:29 9.06964 116.02697 35946 ft 466 kts 233°
2026-05-04 01:29 9.03123 115.97451 35941 ft 467 kts 233°
2026-05-04 01:30 8.99257 115.92173 35941 ft 467 kts 233°
2026-05-04 01:30 8.95392 115.86892 35941 ft 467 kts 233°
2026-05-04 01:31 8.91520 115.81621 35941 ft 467 kts 233°
2026-05-04 01:31 8.87650 115.76342 35942 ft 467 kts 233°
2026-05-04 01:32 8.83784 115.71059 35943 ft 467 kts 233°
2026-05-04 01:32 8.79918 115.65781 35943 ft 467 kts 233°
2026-05-04 01:33 8.76047 115.60506 35944 ft 467 kts 233°
2026-05-04 01:33 8.72169 115.55226 35943 ft 468 kts 233°
2026-05-04 01:34 8.68309 115.49982 35944 ft 468 kts 233°
2026-05-04 01:34 8.64435 115.44704 35945 ft 468 kts 233°
2026-05-04 01:35 8.60560 115.39423 35945 ft 468 kts 233°
2026-05-04 01:35 8.56679 115.34149 35946 ft 467 kts 233°
2026-05-04 01:36 8.52806 115.28873 35946 ft 468 kts 233°
2026-05-04 01:36 8.48929 115.23598 35947 ft 468 kts 233°
2026-05-04 01:37 8.45046 115.18328 35948 ft 468 kts 233°
2026-05-04 01:37 8.41856 115.13993 35949 ft 467 kts 233°
2026-05-04 01:38 8.37975 115.08723 35948 ft 467 kts 233°
2026-05-04 01:38 8.34094 115.03452 35948 ft 467 kts 232°
2026-05-04 01:39 8.30245 114.98240 35949 ft 467 kts 232°
2026-05-04 01:39 8.26364 114.92975 35949 ft 467 kts 232°
2026-05-04 01:40 8.22486 114.87712 35947 ft 467 kts 232°
2026-05-04 01:40 8.18604 114.82459 35947 ft 467 kts 232°
2026-05-04 01:41 8.14747 114.77242 35945 ft 467 kts 232°
2026-05-04 01:41 8.10865 114.71986 35945 ft 467 kts 232°
2026-05-04 01:42 8.06983 114.66735 35946 ft 467 kts 232°
2026-05-04 01:42 8.03113 114.61479 35945 ft 467 kts 232°
2026-05-04 01:43 7.99233 114.56226 35945 ft 466 kts 232°
2026-05-04 01:43 7.95349 114.50983 35944 ft 466 kts 232°
2026-05-04 01:44 7.91493 114.45778 35944 ft 466 kts 232°
2026-05-04 01:44 7.87614 114.40537 35944 ft 466 kts 232°
2026-05-04 01:45 7.83731 114.35299 35945 ft 466 kts 232°
2026-05-04 01:45 7.77916 114.27446 35944 ft 466 kts 232°
2026-05-04 01:46 7.74039 114.22209 35944 ft 466 kts 232°
2026-05-04 01:46 7.70160 114.16970 35945 ft 466 kts 232°
2026-05-04 01:47 7.66276 114.11741 35944 ft 466 kts 232°
2026-05-04 01:47 7.62395 114.06511 35944 ft 466 kts 232°
2026-05-04 01:48 7.58515 114.01280 35943 ft 466 kts 232°
2026-05-04 01:48 7.54662 113.96083 35946 ft 466 kts 232°
2026-05-04 01:49 7.50782 113.90854 35947 ft 466 kts 232°
2026-05-04 01:49 7.46898 113.85629 35947 ft 466 kts 232°
2026-05-04 01:50 7.43012 113.80391 35947 ft 466 kts 232°
2026-05-04 01:50 7.39129 113.75163 35948 ft 466 kts 232°
2026-05-04 01:51 7.35229 113.69929 35948 ft 467 kts 232°
2026-05-04 01:51 7.31359 113.64734 35949 ft 467 kts 232°
2026-05-04 01:52 7.27470 113.59500 35949 ft 467 kts 232°
2026-05-04 01:52 7.23581 113.54259 35949 ft 467 kts 232°
2026-05-04 01:53 7.19680 113.49029 35949 ft 467 kts 232°
2026-05-04 01:53 7.15774 113.43792 35950 ft 467 kts 232°
2026-05-04 01:54 7.11875 113.38555 35950 ft 467 kts 232°
2026-05-04 01:54 7.07980 113.33317 35951 ft 467 kts 232°
2026-05-04 01:55 7.04077 113.28082 35950 ft 467 kts 232°
2026-05-04 01:55 7.00177 113.22849 35949 ft 467 kts 232°
2026-05-04 01:56 6.96298 113.17654 35949 ft 467 kts 232°
2026-05-04 01:56 6.92392 113.12424 35948 ft 467 kts 232°
2026-05-04 01:57 6.88487 113.07188 35946 ft 468 kts 232°
2026-05-04 01:57 6.84582 113.01954 35943 ft 468 kts 232°
2026-05-04 01:58 6.80669 112.96729 35942 ft 467 kts 232°
2026-05-04 01:58 6.76753 112.91494 35941 ft 468 kts 232°
2026-05-04 01:59 6.72848 112.86263 35940 ft 468 kts 232°
2026-05-04 01:59 6.68964 112.81058 35940 ft 468 kts 232°
2026-05-04 02:00 6.65056 112.75823 35942 ft 468 kts 232°
2026-05-04 02:00 6.61140 112.70591 35944 ft 468 kts 232°
2026-05-04 02:01 6.57223 112.65363 35944 ft 468 kts 232°
2026-05-04 02:01 6.53310 112.60136 35944 ft 468 kts 232°
2026-05-04 02:02 6.49391 112.54901 35945 ft 468 kts 232°
2026-05-04 02:02 6.45477 112.49675 35946 ft 468 kts 232°
2026-05-04 02:03 6.41571 112.44450 35947 ft 467 kts 232°
2026-05-04 02:03 6.37659 112.39227 35947 ft 467 kts 232°
2026-05-04 02:04 6.33748 112.34015 35948 ft 467 kts 232°
2026-05-04 02:04 6.29858 112.28844 35948 ft 467 kts 231°
2026-05-04 02:05 6.25944 112.23626 35948 ft 467 kts 232°
2026-05-04 02:05 6.22044 112.18410 35947 ft 466 kts 232°
2026-05-04 02:06 6.18137 112.13207 35947 ft 466 kts 231°
2026-05-04 02:06 6.14230 112.08005 35949 ft 466 kts 231°
2026-05-04 02:07 6.10320 112.02803 35952 ft 466 kts 232°
2026-05-04 02:07 6.06414 111.97600 35953 ft 466 kts 231°
2026-05-04 02:08 6.02508 111.92402 35952 ft 466 kts 231°
2026-05-04 02:08 5.98617 111.87229 35952 ft 466 kts 231°
2026-05-04 02:09 5.94706 111.82036 35952 ft 466 kts 231°
2026-05-04 02:09 5.90799 111.76836 35949 ft 466 kts 232°
2026-05-04 02:10 5.86899 111.71633 35946 ft 466 kts 232°
2026-05-04 02:10 5.82994 111.66433 35943 ft 466 kts 231°
2026-05-04 02:11 5.79078 111.61240 35941 ft 466 kts 231°
2026-05-04 02:11 5.75186 111.56077 35940 ft 467 kts 231°
2026-05-04 02:12 5.71267 111.50881 35939 ft 467 kts 231°
2026-05-04 02:12 5.67349 111.45681 35938 ft 467 kts 232°
2026-05-04 02:13 5.63437 111.40477 35939 ft 467 kts 232°
2026-05-04 02:13 5.59515 111.35276 35941 ft 467 kts 231°
2026-05-04 02:14 5.55590 111.30074 35939 ft 468 kts 232°
2026-05-04 02:14 5.51671 111.24866 35934 ft 468 kts 232°
2026-05-04 02:15 5.47746 111.19652 35930 ft 468 kts 232°
2026-05-04 02:15 5.43840 111.14482 35928 ft 468 kts 231°
2026-05-04 02:16 5.39907 111.09272 35928 ft 468 kts 232°
2026-05-04 02:16 5.35977 111.04060 35928 ft 468 kts 232°
2026-05-04 02:17 5.32047 110.98847 35927 ft 468 kts 232°
2026-05-04 02:17 5.28110 110.93634 35929 ft 468 kts 232°
2026-05-04 02:18 5.24172 110.88425 35931 ft 468 kts 232°
2026-05-04 02:18 5.20233 110.83214 35935 ft 469 kts 232°
2026-05-04 02:19 5.16297 110.78001 35934 ft 469 kts 232°
2026-05-04 02:19 5.12388 110.72816 35936 ft 469 kts 232°
2026-05-04 02:20 5.08448 110.67597 35936 ft 469 kts 232°
2026-05-04 02:20 5.04504 110.62383 35943 ft 469 kts 231°
2026-05-04 02:21 5.00552 110.57174 35948 ft 469 kts 231°
2026-05-04 02:21 4.96604 110.51953 35951 ft 470 kts 232°
2026-05-04 02:22 4.92660 110.46734 35954 ft 470 kts 232°
2026-05-04 02:22 4.88710 110.41514 35955 ft 470 kts 231°
2026-05-04 02:23 4.84761 110.36300 35957 ft 470 kts 231°
2026-05-04 02:23 4.80804 110.31082 35959 ft 470 kts 232°
2026-05-04 02:24 4.76884 110.25898 35959 ft 470 kts 232°
2026-05-04 02:24 4.72937 110.20683 35955 ft 470 kts 232°
2026-05-04 02:25 4.68993 110.15465 35953 ft 469 kts 232°
2026-05-04 02:25 4.65037 110.10251 35951 ft 470 kts 231°
2026-05-04 02:26 4.61077 110.05044 35953 ft 469 kts 231°
2026-05-04 02:26 4.57121 109.99839 35953 ft 469 kts 232°
2026-05-04 02:27 4.53178 109.94625 35950 ft 470 kts 232°
2026-05-04 02:27 4.49237 109.89405 35950 ft 470 kts 232°
2026-05-04 02:28 4.45285 109.84190 35950 ft 470 kts 232°
2026-05-04 02:28 4.41358 109.79015 35951 ft 470 kts 232°
2026-05-04 02:29 4.37402 109.73806 35952 ft 470 kts 232°
2026-05-04 02:29 4.33442 109.68598 35951 ft 470 kts 232°
2026-05-04 02:30 4.29489 109.63392 35952 ft 470 kts 232°
2026-05-04 02:30 4.25891 109.57937 35951 ft 471 kts 244°
2026-05-04 02:31 4.23880 109.51702 35953 ft 471 kts 255°
2026-05-04 02:31 4.22233 109.45343 35950 ft 472 kts 255°
2026-05-04 02:32 4.20561 109.38982 35948 ft 472 kts 255°
2026-05-04 02:32 4.18939 109.32812 35951 ft 473 kts 255°
2026-05-04 02:33 4.17288 109.26483 35953 ft 473 kts 255°
2026-05-04 02:33 4.15630 109.20106 35955 ft 473 kts 255°
2026-05-04 02:34 4.13967 109.13732 35953 ft 473 kts 255°
2026-05-04 02:34 4.12567 109.08395 35954 ft 473 kts 255°
2026-05-04 02:35 4.10909 109.02063 35955 ft 473 kts 255°
2026-05-04 02:35 4.09241 108.95687 35955 ft 473 kts 255°
2026-05-04 02:36 4.07564 108.89308 35953 ft 473 kts 255°
2026-05-04 02:36 4.05892 108.82927 35955 ft 473 kts 255°
2026-05-04 02:37 4.04220 108.76547 35954 ft 474 kts 255°
2026-05-04 02:37 4.02546 108.70156 35952 ft 474 kts 255°
2026-05-04 02:38 4.00892 108.63804 35953 ft 474 kts 255°
2026-05-04 02:38 3.99233 108.57416 35952 ft 474 kts 255°
2026-05-04 02:39 3.97568 108.51026 35949 ft 474 kts 255°
2026-05-04 02:39 3.95904 108.44633 35947 ft 474 kts 255°
2026-05-04 02:40 3.94234 108.38246 35947 ft 474 kts 255°
2026-05-04 02:40 3.92559 108.31858 35945 ft 474 kts 255°
2026-05-04 02:41 3.90903 108.25464 35945 ft 474 kts 255°
2026-05-04 02:41 3.89245 108.19075 35944 ft 474 kts 255°
2026-05-04 02:42 3.87568 108.12682 35945 ft 474 kts 255°
2026-05-04 02:42 3.85895 108.06294 35945 ft 474 kts 255°
2026-05-04 02:43 3.84245 107.99943 35945 ft 474 kts 255°
2026-05-04 02:43 3.82577 107.93544 35945 ft 474 kts 255°
2026-05-04 02:44 3.80910 107.87151 35946 ft 474 kts 255°
2026-05-04 02:44 3.79239 107.80762 35945 ft 474 kts 255°
2026-05-04 02:45 3.77565 107.74374 35945 ft 474 kts 255°
2026-05-04 02:45 3.76177 107.69056 35946 ft 475 kts 255°
2026-05-04 02:46 3.74582 107.62981 35947 ft 474 kts 255°
2026-05-04 02:46 3.72909 107.56595 35947 ft 474 kts 255°
2026-05-04 02:47 3.71239 107.50196 35948 ft 474 kts 255°
2026-05-04 02:47 3.69570 107.43807 35948 ft 475 kts 255°
2026-05-04 02:48 3.67894 107.37414 35949 ft 475 kts 255°
2026-05-04 02:48 3.66219 107.31021 35949 ft 475 kts 255°
2026-05-04 02:49 3.64540 107.24627 35949 ft 475 kts 255°
2026-05-04 02:49 3.62861 107.18238 35950 ft 474 kts 255°
2026-05-04 02:50 3.61197 107.11888 35947 ft 474 kts 255°
2026-05-04 02:50 3.59516 107.05499 35945 ft 474 kts 255°
2026-05-04 02:51 3.57835 106.99119 35946 ft 474 kts 255°
2026-05-04 02:51 3.56259 106.92717 35942 ft 474 kts 261°
2026-05-04 02:52 3.55812 106.86139 35942 ft 473 kts 267°
2026-05-04 02:52 3.55477 106.79561 35941 ft 474 kts 267°
2026-05-04 02:53 3.55123 106.72972 35939 ft 473 kts 266°
2026-05-04 02:53 3.54778 106.66440 35938 ft 473 kts 267°
2026-05-04 02:54 3.54445 106.59853 35936 ft 474 kts 267°
2026-05-04 02:54 3.54112 106.53263 35934 ft 474 kts 267°
2026-05-04 02:55 3.53600 106.43375 35934 ft 474 kts 267°
2026-05-04 02:56 3.53257 106.36781 35934 ft 475 kts 267°
2026-05-04 02:56 3.52914 106.30182 35935 ft 475 kts 267°
2026-05-04 02:57 3.52590 106.23581 35936 ft 475 kts 267°
2026-05-04 02:57 3.52252 106.16984 35937 ft 475 kts 266°
2026-05-04 02:58 3.51907 106.10428 35937 ft 475 kts 267°
2026-05-04 02:58 3.51563 106.03830 35937 ft 475 kts 267°
2026-05-04 02:59 3.51223 105.97235 35936 ft 475 kts 267°
2026-05-04 02:59 3.50885 105.90633 35936 ft 475 kts 267°
2026-05-04 03:00 3.50555 105.84036 35936 ft 475 kts 267°
2026-05-04 03:00 3.50228 105.77435 35938 ft 474 kts 267°
2026-05-04 03:01 3.49895 105.70841 35942 ft 474 kts 267°
2026-05-04 03:01 3.49562 105.64250 35943 ft 474 kts 267°
2026-05-04 03:02 3.49237 105.57704 35945 ft 474 kts 267°
2026-05-04 03:02 3.48896 105.51121 35946 ft 474 kts 267°
2026-05-04 03:03 3.48564 105.44538 35947 ft 474 kts 267°
2026-05-04 03:03 3.48237 105.37946 35947 ft 474 kts 267°
2026-05-04 03:04 3.47903 105.31365 35950 ft 473 kts 267°
2026-05-04 03:04 3.47573 105.24786 35952 ft 473 kts 267°
2026-05-04 03:05 3.47236 105.18217 35952 ft 473 kts 267°
2026-05-04 03:05 3.46892 105.11647 35952 ft 473 kts 267°
2026-05-04 03:06 3.46555 105.05075 35951 ft 473 kts 267°
2026-05-04 03:06 3.46229 104.98551 35950 ft 473 kts 267°
2026-05-04 03:07 3.45902 104.91980 35949 ft 472 kts 267°
2026-05-04 03:07 3.45566 104.85414 35948 ft 472 kts 267°
2026-05-04 03:08 3.45215 104.78852 35951 ft 472 kts 267°
2026-05-04 03:08 3.44885 104.72297 35951 ft 472 kts 267°
2026-05-04 03:09 3.44572 104.65741 35951 ft 471 kts 267°
2026-05-04 03:09 3.44245 104.59187 35950 ft 471 kts 267°
2026-05-04 03:10 3.43901 104.52677 35949 ft 471 kts 266°
2026-05-04 03:10 3.43554 104.46127 35946 ft 471 kts 267°
2026-05-04 03:11 3.43232 104.39568 35944 ft 472 kts 267°
2026-05-04 03:11 3.42910 104.33009 35943 ft 472 kts 267°
2026-05-04 03:12 3.42578 104.26447 35943 ft 472 kts 267°
2026-05-04 03:12 3.42245 104.19890 35944 ft 472 kts 267°
2026-05-04 03:13 3.41909 104.13329 35945 ft 472 kts 267°
2026-05-04 03:13 3.41584 104.06817 35944 ft 472 kts 267°
2026-05-04 03:14 3.41259 104.00258 35944 ft 472 kts 267°
2026-05-04 03:14 3.40437 103.93762 35945 ft 470 kts 253°
2026-05-04 03:15 3.37728 103.87852 35945 ft 468 kts 237°
2026-05-04 03:15 3.34245 103.82337 35942 ft 469 kts 237°
2026-05-04 03:16 3.30774 103.76816 35937 ft 469 kts 237°
2026-05-04 03:16 3.27317 103.71329 35936 ft 469 kts 237°
2026-05-04 03:17 3.23838 103.65812 35935 ft 469 kts 237°
2026-05-04 03:17 3.20351 103.60296 35938 ft 469 kts 237°
2026-05-04 03:18 3.16871 103.54777 35939 ft 469 kts 237°
2026-05-04 03:18 3.13973 103.48944 35940 ft 469 kts 247°
2026-05-04 03:19 3.11496 103.42958 35862 ft 465 kts 247°
2026-05-04 03:19 3.10260 103.39968 35071 ft 468 kts 247°
2026-05-04 03:19 3.09009 103.36944 34129 ft 471 kts 247°
2026-05-04 03:19 3.07762 103.33930 33765 ft 468 kts 247°
2026-05-04 03:20 3.06514 103.30919 33518 ft 469 kts 247°
2026-05-04 03:20 3.05262 103.27908 33269 ft 469 kts 247°
2026-05-04 03:20 3.04005 103.24886 33018 ft 470 kts 247°
2026-05-04 03:20 3.02750 103.21862 32768 ft 472 kts 247°
2026-05-04 03:21 3.01490 103.18828 32518 ft 472 kts 247°
2026-05-04 03:21 3.00224 103.15787 32267 ft 473 kts 247°
2026-05-04 03:21 2.98979 103.12795 32021 ft 472 kts 247°
2026-05-04 03:21 2.97723 103.09771 31770 ft 470 kts 247°
2026-05-04 03:22 2.96475 103.06759 31409 ft 467 kts 247°
2026-05-04 03:22 2.95236 103.03769 30720 ft 463 kts 247°
2026-05-04 03:22 2.94007 103.00803 30061 ft 459 kts 246°
2026-05-04 03:22 2.92788 102.97863 29411 ft 456 kts 246°
2026-05-04 03:23 2.91578 102.94943 28766 ft 453 kts 246°
2026-05-04 03:23 2.90379 102.92046 28144 ft 449 kts 246°
2026-05-04 03:23 2.89188 102.89171 27512 ft 446 kts 246°
2026-05-04 03:23 2.88003 102.86315 26884 ft 442 kts 246°
2026-05-04 03:24 2.86825 102.83483 26265 ft 439 kts 246°
2026-05-04 03:24 2.85656 102.80678 25660 ft 435 kts 246°
2026-05-04 03:24 2.84515 102.77937 25085 ft 431 kts 246°
2026-05-04 03:24 2.83369 102.75179 24513 ft 427 kts 246°
2026-05-04 03:25 2.82235 102.72452 23945 ft 423 kts 246°
2026-05-04 03:25 2.81111 102.69754 23425 ft 418 kts 246°
2026-05-04 03:25 2.79992 102.67080 22907 ft 414 kts 245°
2026-05-04 03:25 2.78802 102.64478 22599 ft 410 kts 243°
2026-05-04 03:26 2.77528 102.61930 22294 ft 409 kts 242°
2026-05-04 03:26 2.76210 102.59417 21986 ft 407 kts 241°
2026-05-04 03:26 2.74881 102.56924 21668 ft 406 kts 241°
2026-05-04 03:26 2.73563 102.54432 21349 ft 404 kts 241°
2026-05-04 03:27 2.72273 102.51952 20944 ft 401 kts 242°
2026-05-04 03:27 2.71006 102.49481 20438 ft 398 kts 242°
2026-05-04 03:27 2.69760 102.47022 19929 ft 395 kts 242°
2026-05-04 03:27 2.68525 102.44576 19425 ft 393 kts 242°
2026-05-04 03:28 2.67293 102.42145 18926 ft 391 kts 242°
2026-05-04 03:28 2.66065 102.39731 18416 ft 389 kts 242°
2026-05-04 03:28 2.64842 102.37325 17914 ft 386 kts 242°
2026-05-04 03:28 2.63630 102.34937 17435 ft 384 kts 242°
2026-05-04 03:29 2.62426 102.32565 16974 ft 381 kts 242°
2026-05-04 03:29 2.61248 102.30243 16530 ft 378 kts 242°
2026-05-04 03:29 2.60062 102.27911 16069 ft 375 kts 242°
2026-05-04 03:29 2.58883 102.25599 15633 ft 372 kts 242°
2026-05-04 03:30 2.57711 102.23303 15193 ft 369 kts 242°
2026-05-04 03:30 2.56549 102.21026 14765 ft 366 kts 242°
2026-05-04 03:30 2.55402 102.18773 14478 ft 357 kts 242°
2026-05-04 03:30 2.54312 102.16630 14308 ft 335 kts 242°
2026-05-04 03:31 2.53274 102.14594 13868 ft 325 kts 242°
2026-05-04 03:31 2.52257 102.12603 13291 ft 319 kts 242°
2026-05-04 03:31 2.51254 102.10643 12660 ft 315 kts 243°
2026-05-04 03:31 2.50265 102.08707 12037 ft 311 kts 243°
2026-05-04 03:32 2.49288 102.06796 11425 ft 306 kts 243°
2026-05-04 03:32 2.48327 102.04914 10775 ft 303 kts 243°
2026-05-04 03:32 2.47374 102.03048 10108 ft 300 kts 243°
2026-05-04 03:32 2.46445 102.01226 9446 ft 297 kts 243°
2026-05-04 03:33 2.45512 101.99392 8770 ft 294 kts 243°
2026-05-04 03:33 2.44609 101.97617 8515 ft 275 kts 243°
2026-05-04 03:33 2.43776 101.95975 8368 ft 255 kts 243°
2026-05-04 03:33 2.42988 101.94427 7982 ft 246 kts 243°
2026-05-04 03:34 2.42216 101.92914 7486 ft 243 kts 243°
2026-05-04 03:34 2.41710 101.91921 7137 ft 241 kts 243°
2026-05-04 03:34 2.40950 101.90430 6620 ft 239 kts 243°
2026-05-04 03:34 2.40195 101.88955 6140 ft 238 kts 243°
2026-05-04 03:35 2.39446 101.87489 5866 ft 235 kts 243°
2026-05-04 03:35 2.38704 101.86035 5547 ft 234 kts 244°
2026-05-04 03:35 2.38242 101.84494 5224 ft 231 kts 268°
2026-05-04 03:35 2.38496 101.82936 4764 ft 228 kts 295°
2026-05-04 03:36 2.39430 101.81696 4394 ft 219 kts 322°
2026-05-04 03:36 2.40719 101.81029 4268 ft 204 kts 345°
2026-05-04 03:36 2.42104 101.80924 3898 ft 199 kts
2026-05-04 03:36 2.43486 101.81021 3411 ft 199 kts
2026-05-04 03:37 2.44872 101.81119 3053 ft 199 kts
2026-05-04 03:37 2.46228 101.81214 2717 ft 197 kts
2026-05-04 03:37 2.47591 101.81309 2517 ft 195 kts
2026-05-04 03:37 2.48949 101.81405 2511 ft 196 kts
2026-05-04 03:38 2.50314 101.81501 2512 ft 197 kts
2026-05-04 03:38 2.51681 101.81597 2512 ft 197 kts
2026-05-04 03:38 2.53042 101.81511 2512 ft 197 kts 344°
2026-05-04 03:38 2.54261 101.80903 2511 ft 197 kts 326°
2026-05-04 03:39 2.55394 101.80136 2514 ft 197 kts 325°
2026-05-04 03:39 2.56526 101.79357 2514 ft 197 kts 326°
2026-05-04 03:39 2.57656 101.78591 2509 ft 191 kts 326°
2026-05-04 03:39 2.58714 101.77880 2507 ft 178 kts 326°
2026-05-04 03:40 2.59727 101.77201 2498 ft 174 kts 326°
2026-05-04 03:40 2.60702 101.76547 2371 ft 167 kts 326°
2026-05-04 03:40 2.61651 101.75910 2188 ft 162 kts 326°
2026-05-04 03:40 2.62577 101.75289 1987 ft 157 kts 326°
2026-05-04 03:41 2.63463 101.74696 1785 ft 151 kts 326°
2026-05-04 03:41 2.64325 101.74118 1590 ft 148 kts 326°
2026-05-04 03:41 2.65181 101.73544 1402 ft 148 kts 327°
2026-05-04 03:41 2.66032 101.72977 1201 ft 147 kts 327°
2026-05-04 03:42 2.66890 101.72411 987 ft 147 kts 326°
2026-05-04 03:42 2.67737 101.71847 792 ft 146 kts 327°
2026-05-04 03:42 2.68573 101.71277 599 ft 145 kts 326°
2026-05-04 03:42 2.69406 101.70710 436 ft 145 kts 326°
2026-05-04 03:43 2.70246 101.70153 266 ft 145 kts 327°
2026-05-04 03:43 2.71080 101.69593 66 ft 144 kts 326°
2026-05-04 03:43 2.71835 101.69086 39 ft 109 kts 326°
2026-05-04 03:43 2.72323 101.68756 37 ft 60 kts 326°
2026-05-04 03:44 2.72563 101.68642 38 ft 28 kts 347°
2026-05-04 03:44 2.72714 101.68615 39 ft 21 kts 353°
2026-05-04 03:44 2.72868 101.68595 38 ft 23 kts 336°
2026-05-04 03:44 2.73008 101.68505 39 ft 25 kts 326°
2026-05-04 03:45 2.73159 101.68404 38 ft 27 kts 326°
2026-05-04 03:45 2.73308 101.68304 38 ft 27 kts 326°
2026-05-04 03:45 2.73452 101.68205 38 ft 21 kts 326°
2026-05-04 03:45 2.73531 101.68227 36 ft 7 kts 74°
2026-05-04 03:46 2.73587 101.68237 40 ft 19 kts 343°
2026-05-04 03:46 2.73682 101.68196 40 ft 4 kts 34°
2026-05-04 03:46 2.73716 101.68241 42 ft 12 kts 54°
2026-05-04 03:46 2.73773 101.68328 42 ft 16 kts 55°
2026-05-04 03:47 2.73842 101.68430 42 ft 19 kts 56°
2026-05-04 03:47 2.73901 101.68517 42 ft 6 kts 62°
2026-05-04 03:47 2.73881 101.68543 42 ft 6 kts 147°
2026-05-04 03:47 2.73844 101.68567 42 ft 6 kts 146°
2026-05-04 03:48 2.73834 101.68574 42 ft 0 kts 146°